Theta_e
303 301 301 302 302 304 307 309 309 311 311 310 310 313 316 315 314 315 314 312 314 317 316 315 316 315 314 314 314 313 314 313 313 312 312 312 311 312 312 312 312 312 312 311 311 311 311 310 310 309 309 309 309 312 314 312 311 312 313 315 316 316 316 315 314 315 315 315 314 314 314 315 314 313 314 313 313 313 313 313 312 312 311 311 312 312 311
303 301 301 303 303 303 306 308 308 311 311 309 310 315 315 313 314 314 314 314 316 317 316 315 315 315 315 315 314 313 313 313 313 312 312 311 311 312 312 312 312 311 311 311 311 311 311 310 309 310 310 308 309 312 314 311 310 311 312 314 316 316 316 315 314 314 316 316 316 315 314 314 313 313 313 313 313 313 313 313 313 312 311 311 312 311 309
303 302 301 303 303 302 305 308 308 310 311 309 310 315 314 314 315 314 313 315 316 316 315 315 315 315 316 316 315 314 314 312 312 312 311 311 311 312 312 311 311 310 310 310 311 311 311 311 310 310 309 309 309 311 312 311 310 313 314 314 316 316 316 316 315 314 314 315 316 315 314 313 313 313 313 313 313 313 312 312 312 311 310 312 312 309 309
303 302 301 303 303 302 305 307 308 310 311 309 310 314 315 314 314 313 313 315 315 314 315 315 315 314 315 315 314 315 314 313 312 311 311 310 311 312 311 310 310 311 311 311 311 311 311 311 311 310 309 309 309 310 312 313 313 314 315 315 315 316 316 316 316 315 315 315 316 316 315 314 314 313 313 312 312 313 312 311 311 311 311 312 311 309 310
303 301 302 303 303 302 304 307 308 310 311 309 310 314 314 313 313 312 312 314 314 314 314 315 315 315 315 315 315 314 314 313 312 311 311 310 310 311 311 310 311 311 312 312 311 311 311 311 311 310 310 309 308 311 314 315 315 315 315 315 315 315 314 316 317 316 316 316 316 316 316 316 316 315 313 312 312 313 312 311 311 311 310 310 310 310 310
302 301 302 303 303 302 304 307 308 310 311 309 310 315 314 313 314 313 312 314 314 314 315 315 315 315 315 315 315 315 313 313 312 312 311 310 310 311 311 311 311 311 311 312 312 311 311 311 311 310 310 309 310 312 314 315 316 316 315 315 315 314 315 317 317 316 317 317 316 317 317 317 318 317 314 312 312 312 312 312 312 311 310 310 310 311 311
302 301 302 303 304 302 303 307 308 310 311 309 311 315 314 313 314 312 312 314 314 314 315 315 316 316 315 314 314 315 314 313 312 311 311 311 310 310 311 311 311 311 311 311 312 312 311 311 311 311 311 311 311 312 313 314 315 315 314 314 315 314 315 317 317 316 317 317 316 317 317 317 318 317 315 313 312 312 312 312 312 312 311 310 310 311 311
301 301 302 304 304 302 303 306 308 310 311 310 313 315 314 314 314 313 313 314 314 314 314 314 316 316 314 314 314 314 314 313 312 311 311 311 311 310 311 312 311 311 311 311 312 312 312 312 313 312 313 312 311 312 312 313 314 314 314 314 315 315 315 316 316 315 315 316 316 316 317 317 318 317 315 314 312 312 312 312 312 312 311 311 311 311 310
301 301 302 304 304 303 303 306 308 309 311 312 314 314 312 313 312 312 314 313 312 314 314 314 315 315 314 314 314 314 314 313 312 311 310 310 311 311 311 312 311 311 311 311 311 311 311 312 312 312 312 312 311 311 311 311 313 314 313 314 314 314 314 316 316 314 314 316 316 316 316 317 318 318 316 314 313 313 313 312 312 312 312 312 311 310 309
301 302 302 304 304 304 303 305 308 309 310 313 315 313 311 312 311 311 313 313 311 313 314 313 314 315 315 315 314 314 314 313 312 312 310 310 310 310 310 311 311 311 312 312 311 311 311 310 310 310 310 310 310 311 311 311 312 312 313 313 313 313 314 314 314 313 314 316 317 316 315 316 317 317 315 315 314 315 314 312 311 312 312 311 310 309 309
302 302 303 304 305 304 303 305 307 309 310 311 314 314 312 312 313 312 312 312 311 312 313 313 314 315 315 314 314 314 314 313 312 312 311 311 311 310 310 311 311 311 312 311 310 309 309 309 308 308 308 309 309 310 311 311 311 311 312 312 312 314 314 313 313 313 314 316 317 315 313 314 315 316 315 315 314 315 314 312 311 312 311 310 309 308 308
302 302 303 304 305 305 304 304 306 309 310 308 311 314 311 310 313 313 311 312 312 311 313 314 314 315 314 314 314 314 314 313 313 312 312 312 311 310 310 311 311 311 311 310 309 308 308 308 308 309 308 308 309 310 311 312 312 311 311 312 313 314 313 313 313 313 312 313 314 313 313 314 314 315 315 315 314 315 314 312 311 311 310 309 309 308 307
303 302 303 304 305 305 304 304 305 308 309 309 310 312 310 308 312 313 311 312 312 312 313 314 313 313 313 313 313 313 313 312 312 312 312 312 312 311 310 310 311 311 310 309 308 308 308 309 310 311 310 310 311 312 313 313 313 312 312 312 313 314 313 312 312 313 312 312 312 313 314 314 313 314 314 314 314 314 313 310 310 310 310 309 308 307 308
303 302 303 304 305 305 305 304 305 306 309 309 310 311 309 308 312 314 312 311 312 312 312 312 313 313 313 313 313 313 313 312 312 312 312 312 312 311 310 309 310 310 309 308 308 308 309 310 310 311 313 313 314 315 315 314 314 314 314 312 312 313 313 313 313 313 313 312 312 312 313 314 313 314 314 314 314 313 312 310 309 310 310 309 308 308 308
304 303 303 304 305 305 305 304 304 306 308 309 309 310 309 309 310 312 313 312 311 311 311 311 313 313 313 313 313 313 313 313 313 313 312 312 312 311 310 310 309 310 309 308 309 309 309 309 310 311 313 314 314 315 315 315 314 315 316 314 312 312 313 313 313 313 312 312 312 312 312 313 313 313 314 314 314 313 313 312 311 310 310 309 309 308 308
305 303 303 304 305 305 305 305 304 305 307 308 309 310 310 308 308 310 312 312 311 311 311 311 312 312 312 312 312 312 313 313 313 313 313 313 312 310 310 310 309 309 308 308 308 308 308 309 310 311 312 314 314 314 314 314 314 314 316 315 313 313 313 313 313 312 312 311 312 313 313 312 312 314 314 314 313 314 314 312 310 310 310 309 309 308 307
305 304 303 304 305 306 305 305 305 305 306 308 309 309 309 309 308 309 312 312 311 311 310 310 311 311 312 312 312 312 312 312 312 312 313 314 312 310 309 309 308 307 307 308 308 308 308 309 310 310 311 313 313 313 313 313 313 314 315 315 314 313 313 312 312 312 312 313 313 313 313 313 313 314 314 312 313 314 314 312 310 310 310 309 309 308 307
306 304 304 304 305 306 306 305 305 305 306 307 308 308 309 308 307 308 311 311 310 311 310 309 310 311 311 311 312 312 311 311 312 312 312 313 312 310 309 308 308 308 307 308 308 308 308 308 309 310 311 312 312 311 312 312 312 312 314 314 314 314 312 312 312 312 312 313 313 313 312 312 313 313 313 312 313 314 313 311 310 310 310 309 309 308 308
305 305 304 304 304 305 306 305 305 305 306 306 307 308 309 308 307 308 311 312 310 310 310 309 309 311 311 310 310 311 310 310 311 311 312 313 312 310 308 307 308 309 308 307 308 308 307 308 309 310 310 310 311 310 311 312 311 311 311 312 311 312 312 312 312 311 311 312 313 312 311 312 313 313 313 313 313 312 311 310 310 310 310 308 308 308 307
305 305 305 305 305 305 306 306 305 305 306 306 307 308 309 308 306 307 310 311 310 309 310 309 309 309 310 309 310 310 310 310 310 310 311 313 311 309 310 309 308 309 309 308 308 308 307 308 309 309 308 309 310 309 309 310 310 310 310 310 310 311 311 311 310 311 311 312 312 312 312 312 313 313 313 313 312 310 310 309 309 310 309 308 308 307 307
305 305 305 305 305 305 306 306 305 306 306 307 307 308 309 307 306 306 308 310 310 309 309 309 308 308 309 310 310 310 310 310 310 309 310 312 311 310 312 312 310 310 310 309 309 308 308 308 309 308 308 309 309 308 308 309 309 309 309 310 310 311 311 309 310 311 311 311 312 312 312 312 313 313 312 312 312 311 310 310 309 309 309 308 307 307 307
306 305 305 305 305 305 306 306 306 306 306 307 307 308 308 308 307 307 307 308 308 308 308 308 308 308 308 309 309 309 309 309 310 309 309 310 310 310 311 311 310 310 310 309 309 309 308 308 308 308 308 308 308 308 308 308 308 309 309 309 309 311 312 312 312 312 311 311 312 312 312 312 312 312 312 313 313 312 311 309 308 308 308 307 306 306 306
307 306 305 305 306 305 306 306 306 306 306 306 307 308 308 308 307 306 307 308 308 307 308 308 308 308 309 309 308 308 308 309 309 309 309 309 310 310 310 311 311 310 309 309 310 310 308 308 308 307 308 308 307 308 308 307 307 308 309 308 309 310 312 312 312 312 311 311 312 312 312 311 311 312 313 313 313 311 310 309 308 308 307 306 306 306 306
308 307 306 306 305 305 305 306 306 306 306 306 307 308 308 308 307 307 307 307 306 306 308 309 309 310 310 310 309 308 308 308 308 308 308 308 309 310 310 310 310 310 309 310 310 309 308 308 308 307 307 308 307 307 308 308 308 308 308 308 308 310 311 311 310 311 311 311 311 312 312 312 311 311 312 312 311 310 309 308 308 307 307 306 307 306 306
308 308 307 306 305 305 305 306 306 306 306 306 307 307 307 307 307 307 308 307 305 307 309 310 310 309 309 308 308 308 308 308 308 308 308 308 309 310 310 309 309 309 310 310 309 308 307 307 308 308 308 308 307 307 307 308 308 308 308 308 308 309 310 310 309 310 310 310 310 311 311 311 311 310 310 310 310 310 309 308 307 307 307 307 307 307 305
308 308 307 306 305 305 306 306 305 305 306 306 306 306 306 307 307 307 307 307 307 307 308 310 311 309 307 308 308 308 307 307 307 308 308 308 309 309 310 309 308 308 308 308 308 307 307 307 308 309 309 308 307 307 307 308 308 307 307 308 308 309 309 308 308 309 309 309 310 310 310 310 311 311 310 310 310 309 309 308 307 306 307 307 307 307 306
308 308 307 306 305 305 306 305 305 305 306 306 306 306 306 306 307 307 307 308 308 308 308 310 312 310 309 309 310 309 308 308 308 308 308 308 308 308 309 309 308 307 307 306 306 306 306 307 308 308 309 309 308 307 307 308 308 308 307 308 308 308 308 308 308 308 309 309 309 309 309 310 310 311 310 310 310 309 308 308 307 306 307 306 306 306 305
309 308 307 306 306 306 306 305 305 306 306 305 305 306 306 306 306 307 307 308 309 309 309 309 310 310 311 311 310 309 309 309 308 309 309 309 308 308 309 309 308 308 307 307 306 306 306 307 308 308 308 308 308 308 308 308 308 308 308 308 308 308 308 308 308 308 309 309 309 309 310 310 310 311 310 310 310 309 308 307 307 306 307 306 306 305 304
309 308 307 306 306 306 306 305 305 306 306 305 305 305 306 306 306 306 307 307 308 308 307 307 308 310 312 311 309 308 308 308 308 309 309 309 309 308 309 309 308 308 308 307 306 307 307 307 308 308 308 309 308 308 308 308 308 309 309 309 309 309 309 309 308 309 309 309 309 309 310 310 310 310 310 310 310 309 308 307 307 306 307 306 305 304 304
309 308 307 307 306 306 306 305 306 306 306 305 305 305 305 306 306 306 306 307 307 307 306 307 309 310 310 310 310 309 309 308 308 309 309 309 309 309 308 309 308 308 308 307 307 307 307 307 307 308 308 308 308 308 308 308 308 309 309 309 309 309 309 309 309 309 309 309 308 309 309 309 310 310 309 309 309 308 307 307 307 306 306 306 305 304 304
308 308 307 306 306 306 306 306 306 306 306 305 305 305 305 307 308 307 306 307 307 306 304 305 308 309 309 310 311 310 309 308 308 309 309 309 309 309 308 308 308 308 308 307 307 307 307 307 307 309 308 308 308 308 309 309 309 309 309 309 309 309 308 309 309 309 309 308 308 308 309 309 310 309 308 308 309 308 307 307 307 306 305 305 305 304 303
308 307 307 306 306 306 306 307 306 306 306 305 305 306 306 307 308 308 307 307 307 305 304 306 308 309 309 310 310 308 308 308 308 308 309 308 308 308 308 308 307 308 307 307 306 306 307 307 307 309 309 308 307 308 309 309 309 309 309 309 309 309 309 309 309 309 308 308 308 309 309 309 309 309 309 309 309 308 307 307 307 305 304 304 304 303 303
307 307 307 306 306 306 306 307 307 306 306 305 305 305 306 306 307 307 307 307 306 304 304 306 309 309 309 310 310 308 308 308 308 307 308 308 308 308 307 307 307 307 307 306 306 307 307 307 307 308 309 308 307 307 308 309 309 309 309 309 309 309 309 309 309 309 309 308 309 309 309 309 309 310 310 309 309 308 307 307 306 305 304 304 303 303 303
307 306 306 305 306 306 307 307 306 306 306 306 305 305 305 306 306 307 306 306 305 303 303 305 307 309 309 310 310 309 308 308 309 309 308 308 308 307 307 306 306 306 306 306 306 307 307 306 306 308 309 308 308 308 309 309 309 309 310 310 309 309 309 309 309 309 309 309 309 309 309 309 310 310 310 309 308 308 307 306 306 305 304 303 303 302 302
307 306 305 305 306 306 307 306 306 306 306 306 306 306 305 305 306 306 306 306 305 304 304 304 306 308 309 311 311 309 307 308 310 310 308 308 308 308 307 307 306 306 307 307 307 307 307 307 307 308 308 308 309 308 309 309 309 310 310 310 309 309 309 310 309 309 309 309 309 309 309 309 309 309 308 308 307 306 306 305 305 305 304 304 303 303 302
307 307 305 305 306 306 306 306 305 305 306 306 306 305 305 306 306 306 306 306 306 306 306 305 305 307 310 311 311 309 307 308 310 309 307 307 307 307 306 307 307 307 307 307 307 308 308 308 307 308 309 309 309 309 308 309 310 310 310 310 310 309 310 310 310 309 309 309 309 309 309 309 309 309 308 307 306 306 305 304 304 304 304 304 303 302 302
308 307 306 306 306 305 305 304 305 305 306 306 305 305 306 306 305 305 305 305 304 305 305 305 306 307 309 311 310 308 307 309 310 308 307 307 307 306 306 307 308 307 307 307 307 308 308 308 308 308 309 310 309 309 309 309 310 310 310 310 310 309 309 309 309 309 309 309 309 309 309 309 309 308 308 307 306 305 305 304 304 304 304 304 303 302 302
308 307 306 306 305 304 304 304 305 305 306 306 305 305 305 303 303 303 303 303 303 304 305 306 307 307 308 309 310 309 308 309 309 308 308 308 307 306 306 307 308 307 307 309 309 308 308 308 307 307 309 309 309 309 309 309 309 310 309 309 309 309 309 309 309 309 310 309 310 310 310 309 309 308 308 307 306 305 305 306 306 305 305 304 304 302 302
308 307 306 305 304 303 304 305 305 305 306 305 305 305 303 301 303 304 304 302 303 304 305 305 307 307 307 308 309 309 308 308 308 309 308 308 307 307 307 307 307 307 308 309 309 308 308 308 308 308 308 309 309 309 309 309 309 309 309 309 309 309 309 309 309 309 310 310 310 310 310 310 309 308 308 307 306 306 306 306 307 305 304 304 303 302 301
306 305 305 304 304 304 304 305 305 306 305 303 303 303 302 302 303 305 304 304 304 304 305 306 307 307 307 309 309 309 308 307 308 309 309 308 307 307 307 307 307 307 308 310 308 307 308 309 309 309 309 309 310 310 309 309 309 309 309 309 309 310 310 310 310 310 310 310 310 310 310 310 309 308 308 307 306 306 306 306 306 305 304 303 302 301 301
306 305 304 304 305 305 305 305 305 305 303 302 302 303 303 303 303 303 304 306 307 306 305 307 307 307 307 308 309 309 308 307 307 307 308 308 307 307 307 308 306 306 309 310 308 306 307 309 309 309 309 309 310 310 309 308 308 308 308 308 309 310 311 311 311 311 310 309 309 309 309 309 309 309 308 308 307 307 306 306 305 305 304 303 301 300 300
306 305 304 305 305 305 304 303 302 302 301 301 303 304 304 304 304 304 304 306 308 307 307 307 308 308 308 308 308 308 307 306 305 306 307 307 307 306 307 308 306 307 309 309 306 306 308 309 309 309 309 309 309 308 307 307 307 307 308 309 310 311 311 311 310 311 310 309 309 309 309 309 309 308 308 308 308 307 307 306 305 304 303 302 301 300 300
306 305 305 305 304 303 302 302 301 301 302 303 305 306 306 305 305 306 305 305 306 307 308 308 307 307 307 307 307 306 306 305 305 305 306 307 306 305 307 308 307 307 309 307 306 307 308 308 309 309 309 309 308 307 306 307 307 306 308 310 311 311 311 311 311 311 310 309 310 310 309 309 309 308 308 307 307 307 306 305 304 304 303 302 301 300 300
306 304 303 303 302 301 303 304 302 302 305 306 305 307 309 308 306 307 307 307 307 308 308 307 306 307 307 306 305 305 304 304 304 305 306 306 305 306 307 308 308 307 307 306 307 308 308 308 308 309 308 308 307 306 306 307 306 306 308 309 310 310 311 311 310 310 309 309 310 309 309 309 309 308 308 307 307 307 306 304 304 303 302 301 301 300 299
305 303 303 303 302 301 304 306 304 303 306 307 306 307 310 309 308 308 309 308 309 309 308 307 307 308 308 306 305 305 305 304 304 305 306 306 306 306 307 308 307 307 307 307 308 309 308 307 307 308 308 307 306 306 306 306 307 307 309 309 310 309 310 310 309 309 309 309 310 309 309 308 308 307 307 306 306 305 305 304 303 302 302 301 301 300 299
305 302 302 305 305 302 303 306 305 304 306 307 307 308 309 309 309 309 308 308 308 309 308 308 308 309 307 306 305 306 305 304 305 306 306 306 307 308 307 306 306 306 307 308 309 309 308 308 308 308 308 307 306 306 307 307 308 309 309 309 309 309 309 309 309 309 309 309 309 308 308 307 306 306 305 305 304 304 304 303 302 302 301 301 300 299 299
304 302 302 306 307 304 303 306 307 306 307 308 308 308 309 310 310 309 308 307 307 307 307 307 308 308 307 305 305 306 305 305 306 306 306 306 307 307 305 306 307 307 308 309 309 308 308 308 308 308 308 306 306 306 307 308 309 309 309 309 310 309 309 309 309 309 309 309 308 307 307 306 306 305 305 304 303 303 303 303 302 302 301 300 299 299 298
303 302 303 307 308 306 304 305 307 307 307 308 308 308 308 309 309 308 307 306 306 307 306 306 307 307 306 305 305 306 306 306 306 306 305 306 307 307 306 307 308 308 308 309 309 308 308 308 308 308 307 307 306 306 307 308 310 310 310 309 310 309 310 309 309 309 310 309 308 308 307 306 306 306 305 305 304 303 303 302 302 301 300 299 299 299 298
302 302 303 306 307 306 306 306 307 308 308 307 307 308 308 309 309 308 307 306 306 306 306 306 306 306 305 305 305 306 306 306 307 307 306 306 307 308 308 308 309 309 308 308 308 308 308 308 308 308 307 307 306 306 307 308 309 309 309 309 310 310 310 310 309 309 309 308 308 308 307 306 306 306 305 305 305 304 303 302 301 300 299 299 299 299 298
302 302 303 304 306 307 307 307 308 309 309 307 307 307 307 308 309 308 306 306 306 305 305 305 305 305 305 305 306 307 307 306 306 307 307 307 307 308 309 310 310 310 309 308 307 307 308 308 307 308 307 307 306 307 307 308 309 309 309 310 309 309 309 309 309 308 308 307 307 307 306 306 306 305 305 305 305 304 303 302 301 300 299 298 298 298 298
301 301 303 305 307 308 308 308 309 310 309 308 308 307 307 308 309 308 306 306 306 305 305 306 305 305 305 306 307 308 307 306 306 308 308 308 308 308 309 310 310 309 309 309 308 307 307 307 307 307 307 307 307 308 308 308 309 309 309 309 308 308 308 308 308 307 307 307 306 306 306 305 305 305 304 304 304 303 303 302 300 299 298 296 296 297 297
301 302 303 305 307 308 308 309 309 309 309 308 309 309 309 310 310 308 307 307 307 306 306 306 305 306 307 307 307 307 306 306 307 308 309 308 308 309 309 309 309 309 309 309 308 307 307 307 307 307 307 307 308 309 309 308 308 308 308 308 308 308 307 307 307 307 307 306 306 305 305 304 304 303 303 303 303 303 303 301 299 297 295 294 294 295 295
Wind_Speed
18 17 17 16 15 14 14 16 19 23 24 22 19 10 2 3 3 4 13 15 6 4 2 4 1 4 4 3 4 3 2 2 2 2 3 3 0 1 2 1 1 1 1 1 0 1 1 1 1 0 1 2 4 4 2 5 7 5 2 1 1 1 3 2 1 4 5 6 5 3 2 1 2 5 4 4 4 3 3 4 3 3 4 4 5 5 3
17 17 16 16 14 13 13 14 17 19 21 20 16 7 1 3 2 2 12 15 5 3 2 3 3 5 4 3 4 3 3 4 4 3 4 3 0 2 2 1 0 1 1 2 1 2 1 2 0 1 2 2 5 2 2 6 6 3 3 2 0 1 2 2 2 3 4 4 4 2 1 1 2 4 4 4 4 1 1 1 2 2 4 4 5 5 5
17 16 15 15 14 12 11 12 14 16 18 17 11 5 2 2 1 1 7 13 7 1 2 2 3 5 4 4 3 2 3 4 3 3 4 3 1 1 2 2 0 1 1 2 1 1 2 2 1 1 2 1 4 1 4 6 4 1 4 3 2 2 3 3 4 3 2 1 1 1 1 1 2 3 4 4 3 1 2 3 4 3 5 4 4 6 8
17 16 14 14 13 11 10 10 12 14 16 14 8 4 3 2 1 0 2 6 6 3 2 2 1 4 3 2 2 2 2 3 1 2 2 3 2 2 2 2 1 0 1 2 2 1 1 2 2 2 2 1 2 2 3 2 0 3 3 2 3 3 3 3 4 5 4 4 3 2 2 1 1 3 3 3 2 1 3 5 4 4 5 4 2 7 12
16 14 13 13 13 11 9 9 11 13 14 12 6 3 2 2 2 3 2 1 3 3 3 1 1 2 0 0 1 2 3 2 2 1 2 2 3 2 2 1 1 1 1 2 2 1 1 2 3 2 2 1 1 1 0 2 4 4 2 1 3 3 3 1 3 4 4 4 3 0 1 2 2 1 2 2 2 2 3 4 3 4 6 6 7 11 14
15 12 11 13 12 10 9 8 10 11 12 10 5 2 1 1 1 2 2 2 2 2 3 2 1 2 0 1 1 1 2 3 2 1 2 2 2 1 1 1 0 1 0 1 1 1 1 2 2 2 2 2 1 3 4 4 4 4 2 1 3 5 2 1 2 5 5 5 3 2 2 3 4 3 2 2 2 2 3 4 3 4 6 8 10 13 13
13 11 10 12 12 9 8 8 8 10 10 7 4 2 1 1 1 2 1 2 2 2 3 2 1 2 1 0 1 1 2 3 2 0 1 3 2 1 2 2 1 1 2 2 1 1 1 2 2 2 1 2 3 2 4 4 4 4 1 1 2 4 1 2 1 5 5 3 3 3 3 4 6 6 2 2 3 2 2 4 5 6 7 8 11 13 12
11 9 9 12 12 8 7 7 7 9 8 4 2 2 2 0 1 1 1 1 2 1 0 2 2 2 1 1 1 1 2 2 1 0 1 2 3 2 2 2 2 3 3 4 3 1 2 2 2 1 2 2 2 2 1 1 3 2 2 1 1 2 0 2 1 5 3 3 3 4 4 5 7 7 4 1 4 3 2 4 5 6 7 9 11 12 10
9 8 9 11 11 8 7 7 7 8 7 2 1 1 2 2 2 1 3 1 2 1 1 1 2 2 2 1 2 2 0 2 2 0 1 1 1 1 2 2 2 3 4 6 6 4 4 5 4 4 4 4 2 2 2 2 2 3 3 2 2 3 1 2 3 5 2 4 3 4 5 7 8 8 4 1 3 4 3 4 4 4 6 9 11 10 9
8 7 9 11 10 8 6 6 6 6 4 2 2 1 2 1 1 1 4 1 1 2 1 2 3 1 1 0 2 2 1 1 1 1 1 2 1 1 2 3 3 4 5 5 5 4 5 6 6 6 7 7 6 5 6 7 7 5 4 3 3 4 4 2 3 5 2 3 3 5 5 7 6 5 4 1 2 4 4 5 5 3 5 6 9 9 10
9 8 9 10 9 7 6 5 5 5 3 2 2 0 2 1 1 1 3 2 2 0 1 2 2 1 2 2 3 3 1 1 2 2 1 2 2 2 3 4 4 4 2 2 3 4 7 9 9 8 9 10 10 9 9 9 9 7 6 4 2 3 5 3 2 4 3 1 4 6 7 5 1 3 3 2 2 4 6 8 8 3 3 5 9 10 13
9 8 8 9 9 7 6 5 4 4 3 3 2 1 3 2 1 1 3 3 1 2 2 1 2 0 3 4 4 4 3 3 2 2 3 2 2 3 3 4 5 2 3 4 5 7 9 10 10 10 10 11 10 10 10 10 9 7 6 6 4 4 5 3 2 5 6 4 4 7 5 1 2 3 3 1 1 3 6 8 5 1 2 7 10 12 14
9 9 9 9 9 7 6 5 3 3 3 2 2 2 3 3 2 1 2 3 1 1 2 0 1 2 5 5 5 5 4 4 3 4 6 5 3 4 3 4 5 4 5 7 8 8 8 7 7 7 7 6 6 6 7 8 8 7 7 8 7 5 4 3 3 4 5 5 4 4 3 1 3 3 3 2 1 2 5 6 1 3 5 8 10 12 13
10 9 10 10 10 7 6 5 4 3 2 1 2 1 2 3 2 1 1 3 2 1 1 1 3 4 6 6 7 5 4 5 5 4 5 4 4 4 3 3 5 5 6 7 6 6 5 3 4 5 5 5 5 5 5 5 4 5 7 8 8 6 5 4 3 2 3 6 5 5 5 3 4 3 3 2 2 2 4 5 1 2 6 9 10 13 14
11 9 10 10 10 8 6 6 5 4 2 1 2 1 2 2 3 2 1 3 2 2 3 2 1 2 4 5 6 6 4 4 5 4 4 4 4 4 3 3 5 5 4 5 5 4 3 2 4 5 4 5 4 4 5 5 4 2 4 7 8 7 5 4 3 2 2 5 6 5 7 3 3 4 4 2 1 1 2 4 2 2 7 9 10 13 14
12 10 11 11 10 8 7 6 6 5 4 3 3 3 3 3 2 2 2 2 3 2 2 1 1 1 2 3 4 6 5 4 3 4 4 4 4 4 2 2 3 3 4 4 4 3 3 3 4 4 4 3 3 3 3 4 4 3 2 5 8 7 6 4 5 4 4 5 6 5 5 2 4 5 4 3 1 2 2 4 1 4 8 10 10 12 13
15 12 12 12 11 9 8 7 7 6 5 3 4 3 4 4 3 2 2 2 3 3 1 4 3 2 2 2 3 3 3 3 3 4 3 2 2 2 1 1 3 4 4 4 3 3 4 4 4 5 3 1 1 2 3 4 5 4 4 5 7 7 5 5 6 6 4 4 5 5 5 2 3 4 3 3 2 2 3 4 2 7 10 10 10 11 12
17 15 13 13 12 9 8 8 7 7 7 5 5 4 4 5 6 4 3 3 4 3 2 5 5 3 1 2 1 1 0 2 2 3 4 2 1 1 1 1 3 5 3 4 3 3 4 3 3 5 2 2 1 3 2 3 5 5 4 5 6 5 5 5 7 7 4 4 5 6 5 2 4 5 4 4 3 3 3 3 5 7 9 9 8 9 10
18 17 16 14 13 11 9 9 8 8 8 6 5 5 4 6 7 6 4 4 4 3 2 5 5 4 1 2 2 1 1 3 3 3 4 3 1 0 1 0 2 2 2 3 3 2 3 3 2 3 3 2 2 3 3 3 4 4 5 6 6 5 5 5 6 6 5 5 5 7 5 1 4 5 5 5 3 2 2 3 4 6 8 8 8 7 7
19 19 18 16 15 13 11 10 9 9 8 8 7 5 4 6 9 7 4 3 4 5 2 3 6 8 5 5 6 4 3 4 3 4 5 2 2 1 3 3 2 2 2 2 2 1 2 3 1 1 4 3 1 1 3 5 5 5 6 6 6 5 4 5 6 5 5 5 5 7 5 2 8 7 5 5 4 3 4 4 5 4 5 7 7 6 6
21 20 20 18 16 15 13 11 10 9 9 9 9 6 4 7 10 8 4 3 3 4 2 1 4 8 8 8 9 7 7 7 5 5 6 2 1 2 3 1 1 1 0 1 1 0 1 2 1 1 3 2 0 1 3 4 5 5 5 5 5 4 5 6 4 3 4 5 5 3 1 4 8 6 3 3 4 3 4 5 5 4 4 4 5 5 6
24 22 21 20 18 16 14 12 11 10 10 11 11 7 5 8 10 7 3 4 5 6 6 5 5 8 11 12 13 12 10 9 7 7 6 4 2 3 3 2 0 1 1 1 1 0 0 2 2 3 3 3 3 3 3 4 4 3 4 4 4 3 3 4 4 3 5 7 5 2 1 2 5 6 5 5 4 3 2 4 5 4 3 3 4 5 6
26 24 23 21 20 18 16 13 12 12 11 12 12 9 6 7 11 8 4 3 6 8 9 9 9 9 12 14 15 15 13 12 11 11 9 6 4 4 5 3 1 1 0 2 3 2 1 2 2 3 4 4 4 5 5 5 5 3 4 5 4 2 1 2 3 4 6 8 9 8 7 6 5 6 6 5 4 3 3 3 4 3 3 3 3 5 7
27 27 25 23 21 20 18 15 14 14 13 12 12 10 6 7 11 11 5 2 3 4 5 6 5 4 4 5 7 10 12 13 13 13 12 10 7 4 3 2 2 2 3 2 2 2 1 1 1 2 4 3 3 6 6 6 5 4 4 5 5 4 4 5 6 6 5 5 6 5 5 5 5 6 6 6 6 5 4 4 3 2 2 3 3 4 6
28 27 27 24 23 22 20 16 15 14 14 13 12 10 7 8 11 11 6 3 2 2 2 4 3 1 0 2 4 6 9 11 12 12 13 14 13 9 3 2 1 3 2 1 1 2 2 2 1 3 4 2 2 4 6 5 4 3 4 5 5 2 3 5 9 10 9 9 8 6 6 7 8 7 6 6 6 5 5 4 2 2 3 3 3 4 5
28 27 27 26 24 23 21 18 16 15 15 15 13 12 10 9 10 10 7 4 2 2 2 3 2 3 2 3 4 4 7 9 10 11 13 15 16 13 8 3 1 1 1 1 2 3 3 3 3 4 4 2 1 4 6 5 5 5 6 7 5 0 2 5 7 8 9 10 10 9 10 10 8 7 6 5 5 5 5 5 4 4 4 4 3 4 5
29 27 27 27 26 25 22 19 17 15 16 16 14 12 10 9 9 10 9 7 4 2 3 3 3 3 2 7 8 7 8 10 11 12 12 13 13 13 12 8 4 2 1 1 1 2 3 3 3 4 4 2 1 5 7 6 7 8 9 9 7 5 7 8 7 7 8 7 7 7 8 7 5 4 5 5 5 5 6 6 5 5 4 3 3 4 5
30 27 27 28 27 26 23 20 18 16 16 17 15 12 11 12 12 11 11 11 7 2 1 2 3 4 6 7 7 8 10 11 11 11 11 12 12 12 13 12 8 5 4 3 2 3 4 4 4 5 4 3 3 6 6 5 7 8 9 8 8 8 9 8 8 8 8 6 6 6 6 7 6 3 4 5 6 6 7 7 6 4 3 2 3 4 4
30 28 28 29 28 26 23 21 19 17 16 16 13 10 11 14 16 15 12 11 10 5 1 2 5 6 4 1 3 5 8 10 11 10 9 10 11 12 13 12 10 7 6 4 4 5 5 5 5 5 3 1 3 5 5 6 8 8 8 8 8 9 10 10 10 11 10 9 9 8 8 9 8 4 4 4 6 7 7 7 6 4 3 3 3 4 4
30 28 29 29 28 26 24 23 20 19 19 17 12 6 6 9 15 20 18 14 12 7 2 2 3 3 3 2 4 7 9 10 10 10 10 10 10 11 12 11 9 8 7 5 5 6 5 5 6 7 5 4 3 4 5 6 8 9 9 9 8 9 10 9 9 10 9 9 9 9 9 10 8 5 5 5 7 8 7 6 6 4 3 3 4 4 4
30 29 29 30 29 27 25 24 22 20 21 19 12 5 2 3 8 17 20 18 14 8 2 2 3 3 3 4 5 6 8 10 9 9 9 9 8 9 11 10 8 8 7 6 6 6 6 5 6 6 7 7 6 5 6 7 9 10 10 9 6 7 8 8 8 9 9 8 8 9 10 9 7 6 6 7 10 10 8 7 6 5 4 4 4 3 3
30 30 30 30 29 27 26 26 25 23 24 24 17 8 3 1 2 10 18 19 15 8 2 2 3 4 3 2 3 4 7 8 7 6 6 7 7 8 9 9 8 7 7 6 5 6 7 7 7 7 6 7 6 5 7 8 10 12 13 10 7 6 7 7 7 8 8 8 8 9 10 9 9 10 9 8 10 12 10 8 9 8 6 5 5 4 3
30 30 30 30 29 27 26 26 26 25 24 24 22 17 11 3 1 8 18 19 12 5 2 2 2 3 1 1 1 5 8 6 4 5 5 6 6 6 6 7 6 6 7 6 5 4 5 5 6 8 6 6 5 5 8 10 13 15 15 13 10 8 8 8 8 8 8 8 8 9 10 9 8 9 9 8 10 12 11 10 9 9 7 6 6 4 4
30 29 31 31 29 28 26 25 26 25 23 20 19 23 23 14 4 10 19 17 7 2 2 2 2 3 2 2 2 5 7 4 4 4 4 5 6 5 5 5 5 5 6 7 6 5 5 5 5 7 6 6 6 7 9 13 17 16 14 13 11 10 8 8 8 8 8 7 8 10 11 10 7 6 7 8 10 12 12 11 10 9 7 6 5 4 4
30 30 31 30 29 27 26 26 26 24 20 16 14 19 24 21 11 10 16 13 4 1 2 3 2 3 4 4 3 4 5 4 4 3 2 4 6 5 4 4 5 5 5 6 6 6 7 6 5 7 7 7 8 8 10 14 15 13 11 11 10 9 9 8 8 8 7 6 7 8 9 9 8 8 9 10 11 11 11 10 10 9 7 6 5 5 4
31 30 29 29 30 27 24 25 27 22 15 12 12 13 15 15 12 12 16 13 6 3 2 2 3 4 5 5 3 2 4 4 4 2 2 3 4 4 4 5 5 4 4 5 6 7 7 5 5 6 7 8 9 9 10 12 13 12 12 12 10 9 10 10 9 9 8 7 8 8 9 10 10 10 9 10 11 11 11 11 10 9 8 7 5 5 5
31 29 29 29 27 20 14 16 21 19 14 14 14 11 7 7 8 10 12 10 6 4 3 2 4 5 6 6 3 2 3 4 3 3 3 3 3 4 4 5 5 3 3 6 8 7 6 5 6 8 9 9 10 11 11 12 13 12 12 12 11 10 10 10 9 9 10 10 10 11 10 10 11 10 9 10 11 12 12 11 10 9 8 7 6 5 5
32 31 30 26 17 8 4 8 14 15 16 18 16 9 5 4 4 3 4 4 3 3 4 4 5 6 6 6 4 4 4 3 3 4 4 3 3 3 3 4 4 3 3 6 6 4 5 6 7 9 11 10 11 14 14 14 13 12 11 12 11 10 10 9 9 10 10 10 10 10 10 10 11 10 10 11 12 12 11 10 9 9 8 6 6 6 6
34 29 24 17 9 3 4 9 16 19 20 18 13 6 2 2 2 2 2 2 2 3 4 5 6 8 8 9 8 5 3 3 4 5 4 3 3 3 3 4 3 3 5 6 4 5 5 6 6 8 10 10 11 14 14 13 12 11 10 10 10 9 9 8 8 9 10 10 9 8 7 8 9 9 10 10 10 11 10 10 9 10 9 7 7 7 6
32 21 11 7 5 7 13 19 24 23 16 9 4 2 2 2 3 2 2 3 2 3 4 4 5 7 10 11 10 6 5 5 6 6 5 4 2 1 3 3 2 2 6 7 4 4 5 7 7 8 9 7 7 8 9 9 9 8 7 7 7 8 8 8 8 9 10 10 10 9 8 8 8 8 9 10 10 10 10 10 10 10 9 8 7 7 7
25 14 8 7 11 18 25 27 23 15 7 2 1 3 2 3 3 2 2 4 5 4 4 5 6 7 9 11 9 6 6 5 3 3 3 4 2 2 4 4 2 2 6 5 3 4 5 7 7 8 9 7 5 4 5 6 6 5 5 5 5 6 7 7 7 7 8 8 7 7 7 7 7 7 9 10 10 9 9 10 10 10 10 9 8 8 7
24 19 18 19 21 23 22 16 8 4 2 1 2 3 3 3 3 3 3 5 4 3 5 7 7 5 7 9 8 5 5 5 3 2 4 4 3 3 5 4 2 4 6 3 2 3 6 7 7 8 7 5 4 4 4 5 5 4 4 4 4 5 5 6 5 5 6 6 5 4 5 6 7 7 8 10 10 9 9 10 11 11 10 9 9 8 8
31 30 25 19 14 10 7 3 1 2 3 2 3 5 5 4 3 4 3 3 3 4 5 7 5 3 4 6 6 3 3 4 4 3 3 4 3 3 4 4 4 4 3 2 3 6 7 7 7 7 5 3 2 3 4 4 4 5 4 4 3 4 5 4 3 3 4 5 5 4 4 5 6 6 8 10 10 10 10 10 11 11 10 10 10 9 8
32 25 15 7 3 2 3 2 2 4 5 5 5 6 7 7 6 6 5 4 5 6 7 8 7 6 6 7 5 4 4 4 3 3 3 4 3 4 4 5 4 3 2 3 6 8 8 7 7 7 6 4 3 3 3 4 4 5 4 3 3 4 4 3 3 3 4 4 4 4 4 4 5 6 8 10 11 12 12 11 11 11 11 11 10 9 9
19 9 4 3 3 3 3 3 3 4 6 6 5 6 7 8 8 8 6 4 4 6 8 9 8 7 7 7 5 3 4 4 4 4 4 3 4 5 5 3 3 3 4 5 7 8 7 7 6 6 6 5 3 3 3 3 3 4 3 3 4 4 4 4 4 3 2 2 2 2 3 4 5 6 8 9 11 12 12 12 12 12 12 11 10 9 9
6 2 3 4 4 4 4 4 5 5 5 5 6 7 8 8 7 7 6 4 4 5 7 8 8 8 8 6 3 3 4 5 4 4 4 3 4 5 4 3 3 4 5 7 8 8 8 7 6 5 4 4 2 2 2 2 3 3 3 3 3 4 3 3 3 3 2 2 2 2 3 5 6 7 9 10 11 12 11 11 12 13 12 11 10 9 9
3 3 3 2 4 5 5 5 5 4 4 6 7 8 7 5 4 5 5 4 5 6 7 6 6 6 6 5 3 3 5 5 4 5 5 4 4 3 3 3 4 5 6 8 9 8 6 6 6 5 3 2 3 3 2 2 3 4 4 3 2 2 2 3 3 2 2 2 2 3 4 5 6 8 9 11 12 12 11 11 12 13 12 11 10 10 10
3 3 2 3 4 5 5 6 5 4 4 5 7 7 6 5 4 5 5 5 5 7 8 7 6 5 4 3 3 4 5 5 5 5 4 4 4 3 3 4 6 6 6 7 8 7 5 6 6 4 3 3 3 3 3 3 4 4 4 4 4 3 3 3 2 1 1 2 2 3 4 4 6 8 10 11 12 13 12 11 11 11 11 11 10 10 11
4 2 2 3 3 3 5 7 8 7 6 5 5 6 7 6 6 6 6 6 6 6 6 4 4 4 4 3 2 3 4 5 4 4 4 4 5 4 4 6 8 8 7 7 7 6 5 5 4 3 3 4 4 4 4 4 4 4 4 4 3 2 2 1 0 0 1 1 2 3 3 3 5 7 9 11 12 12 13 12 12 11 11 11 11 10 11
2 2 3 4 4 5 7 9 10 11 9 7 6 7 8 7 6 6 6 6 7 6 5 3 2 2 3 3 2 3 5 5 4 5 6 7 6 5 6 8 9 7 6 6 6 6 5 5 5 4 5 5 5 5 5 4 4 4 3 2 2 1 1 0 0 0 0 1 1 2 3 4 5 6 8 10 11 11 11 12 12 11 11 11 10 10 10
2 3 4 4 5 6 7 8 10 11 11 9 7 7 7 6 6 5 6 7 7 6 4 3 3 3 3 4 4 4 4 4 4 6 8 7 6 7 9 10 8 6 4 4 5 5 5 5 6 6 6 5 5 5 4 4 4 4 4 3 2 2 1 1 1 1 1 1 1 2 3 3 4 4 5 7 8 8 9 10 10 9 10 11 10 9 8
3 2 3 4 5 6 6 6 6 7 7 6 5 5 5 4 5 7 8 8 8 6 5 4 4 3 4 5 4 3 3 3 5 8 9 7 6 7 8 8 6 5 5 4 4 4 5 5 4 5 5 5 5 5 5 5 4 4 5 4 4 3 3 2 2 2 2 2 2 2 2 2 3 3 4 5 7 8 8 8 9 10 12 13 12 11 10
Wind_Direction
330 326 329 337 341 340 345 351 353 354 358 2 360 352 314 337 7 346 347 353 323 272 79 106 97 76 90 89 79 74 40 30 17 14 17 21 85 179 147 104 356 62 9 312 220 337 340 241 271 54 141 62 47 69 50 345 321 300 293 62 106 245 276 272 167 119 104 114 126 104 81 156 80 60 52 44 48 28 351 2 342 330 354 346 321 319 4
328 324 325 334 338 339 343 350 354 356 360 0 353 343 331 351 344 331 354 358 328 266 57 99 112 96 118 130 97 89 53 29 9 12 24 23 112 170 135 107 24 82 351 286 288 355 309 224 263 323 234 89 77 96 338 338 318 298 354 5 137 247 310 301 260 186 162 157 152 157 208 225 51 53 55 54 54 43 272 297 268 312 19 348 306 316 350
326 322 322 330 335 335 338 346 353 355 357 1 354 329 294 305 241 196 9 13 21 33 23 41 118 119 124 111 91 96 88 53 8 11 35 36 33 156 131 126 84 88 225 250 248 309 278 240 172 237 245 128 106 116 322 323 301 13 20 341 287 297 323 318 307 299 278 305 45 77 37 58 64 55 54 54 47 13 284 268 268 338 6 317 293 323 334
321 318 319 328 331 331 333 343 352 352 355 1 352 309 303 315 325 21 34 37 51 81 46 2 113 125 126 119 87 12 47 85 70 357 23 69 89 94 113 155 202 112 206 217 179 179 245 266 249 224 224 189 105 33 344 330 75 91 64 327 289 292 296 301 313 324 339 350 14 38 8 354 67 50 43 46 43 335 291 293 313 343 323 299 353 344 324
315 313 315 325 329 327 328 338 349 350 353 0 348 300 314 313 337 3 1 47 68 92 89 43 88 105 18 249 112 38 14 57 103 353 7 89 122 103 82 122 176 129 165 195 164 175 222 232 236 230 235 251 84 89 143 114 126 136 128 340 304 283 275 321 324 316 321 323 324 163 218 243 226 300 11 20 1 310 299 311 338 332 306 317 358 342 322
309 307 311 324 327 326 324 333 347 346 350 359 343 284 351 343 27 35 329 313 30 50 47 33 71 111 127 287 105 56 13 22 30 59 94 137 170 186 135 131 129 93 184 221 182 222 225 175 197 199 201 277 282 163 147 127 154 183 170 45 319 292 286 81 352 304 296 290 265 193 212 233 221 237 317 5 347 317 300 296 307 314 308 318 333 329 319
306 300 307 324 326 324 321 328 344 344 348 359 328 296 29 45 108 89 300 313 31 33 10 341 222 141 135 160 112 31 23 31 15 356 160 162 167 252 209 175 216 238 225 249 239 230 232 171 178 198 208 300 287 191 146 142 170 193 182 36 319 295 288 91 1 298 281 252 213 197 227 233 213 219 248 339 344 334 292 283 292 292 293 309 323 319 311
304 294 303 322 325 323 319 323 340 345 349 360 307 319 20 340 16 82 204 153 73 69 280 246 221 161 178 225 120 75 3 27 35 335 227 178 155 227 247 213 253 248 227 245 245 245 289 260 206 247 281 280 259 232 239 141 168 210 282 323 301 273 242 107 251 278 251 187 193 217 239 239 218 212 215 305 340 350 330 306 304 290 291 309 317 312 313
299 286 300 320 325 322 315 318 338 350 356 359 246 12 43 23 16 329 252 149 87 234 192 231 255 197 196 208 133 154 43 27 14 4 267 279 183 208 271 277 262 232 221 244 250 250 271 270 267 279 277 276 278 273 297 314 281 271 285 292 257 259 261 165 239 277 255 177 225 265 252 239 226 217 215 272 342 353 356 332 313 277 272 295 309 316 328
293 279 295 316 323 318 309 313 332 353 9 340 282 123 117 133 114 244 271 258 140 254 195 199 255 223 162 163 147 177 116 54 325 297 168 250 286 315 290 282 271 241 227 245 265 271 273 274 282 284 270 269 273 265 265 274 279 280 282 288 276 270 281 269 270 295 287 192 261 296 263 242 232 211 190 148 5 339 328 333 330 279 247 290 318 326 328
286 273 288 311 319 314 305 308 326 351 23 23 321 99 153 241 260 195 258 249 164 225 240 223 253 92 134 192 193 201 213 208 267 304 201 209 237 264 266 266 271 271 274 316 323 297 280 274 272 271 265 261 260 258 259 258 257 254 253 262 268 258 270 286 297 296 294 264 285 282 263 260 248 137 144 115 13 331 319 330 336 315 251 302 320 322 325
285 272 278 301 310 307 301 297 309 341 13 77 36 321 184 216 295 235 258 267 163 174 233 259 3 59 193 204 209 215 231 244 272 295 276 266 254 249 254 256 260 288 9 341 308 290 278 264 250 247 251 251 251 251 250 246 243 238 234 239 242 240 254 272 285 283 293 303 281 268 268 274 124 144 144 97 338 307 313 323 338 13 316 323 325 327 331
284 271 269 289 299 296 294 287 279 315 333 98 69 318 201 193 278 282 271 277 219 192 249 110 98 224 219 215 223 227 238 264 277 268 264 267 252 239 239 246 260 302 342 319 299 291 280 254 230 225 221 218 220 223 224 228 229 221 216 223 231 235 243 261 277 284 292 290 273 276 303 116 163 181 155 156 248 289 314 322 35 85 353 340 336 333 333
276 267 261 278 291 286 282 278 261 273 300 130 103 302 204 203 282 307 277 274 251 135 272 231 174 209 229 229 230 231 235 252 258 253 252 252 247 246 248 254 273 302 317 306 286 270 267 247 216 200 182 184 190 178 169 174 187 204 211 212 220 236 249 262 271 274 294 294 289 287 284 228 177 176 158 165 291 332 332 312 283 62 4 351 340 334 334
265 261 255 268 282 278 270 268 255 247 255 196 164 209 212 222 279 295 285 284 276 193 216 238 158 183 224 228 229 232 234 240 248 244 231 231 239 242 248 277 290 296 293 285 274 263 267 259 226 202 185 198 203 175 162 160 149 168 219 207 205 225 248 268 274 257 274 296 296 285 282 268 150 158 151 125 317 317 307 283 250 53 7 353 343 336 334
253 252 249 259 273 270 262 259 248 238 236 213 183 204 227 219 231 269 269 274 277 248 199 145 89 218 235 229 231 241 245 244 253 255 231 206 214 224 238 288 276 263 260 259 262 269 261 242 232 223 212 210 203 184 189 197 168 126 152 191 193 213 238 255 266 263 257 276 283 279 286 314 122 147 149 140 205 235 241 247 211 42 4 351 348 338 333
245 243 243 252 263 263 253 250 244 230 223 209 179 193 229 220 193 219 258 246 257 269 137 127 156 213 233 237 227 229 240 242 255 272 267 206 199 210 172 161 188 208 253 263 247 248 248 237 235 237 228 153 200 221 222 231 217 170 153 179 189 206 228 236 251 262 253 256 272 272 272 265 155 153 142 136 168 221 255 266 354 19 359 351 348 337 333
239 237 239 246 254 257 248 242 239 226 215 205 188 194 225 216 189 192 236 243 253 267 154 155 198 240 304 316 296 123 205 254 244 257 265 254 229 211 152 150 191 194 224 262 255 248 252 245 249 255 236 103 156 252 239 229 236 223 210 212 211 217 228 234 251 262 240 227 254 267 267 237 177 169 145 134 160 218 269 314 356 353 345 349 343 330 331
234 233 235 239 246 253 246 235 231 222 212 204 195 198 215 203 182 184 222 236 244 256 141 153 214 253 347 334 275 220 251 267 251 242 248 238 166 104 146 202 243 208 203 242 249 253 259 248 250 282 265 185 181 256 257 225 235 244 236 234 237 235 229 231 245 254 250 244 253 268 279 166 148 153 141 151 196 274 330 350 348 333 336 346 336 325 329
231 229 231 235 240 246 242 231 224 216 208 200 193 194 203 192 179 184 217 249 256 257 228 177 220 238 228 232 247 244 245 255 235 226 243 242 87 210 221 196 199 212 210 237 236 234 268 259 217 275 270 249 155 268 252 231 233 245 245 244 248 247 244 245 239 237 250 250 243 264 287 145 152 155 148 179 234 319 346 331 334 340 336 333 326 327 332
228 226 228 230 234 240 238 226 215 209 204 201 198 198 201 187 180 183 211 251 257 258 257 156 225 242 240 240 251 256 254 254 241 228 244 263 92 250 272 8 113 207 225 319 267 142 263 277 280 272 274 276 176 229 254 247 230 221 233 259 261 235 235 257 254 215 228 244 239 261 351 128 165 188 208 228 252 307 324 311 325 341 332 325 326 331 331
226 225 226 227 229 235 234 220 206 202 203 202 200 201 199 189 183 181 193 224 245 263 279 290 272 261 258 254 251 248 246 249 247 240 247 253 226 238 276 316 266 255 340 315 277 201 245 267 269 265 263 255 245 249 259 263 245 187 181 226 243 220 235 278 286 233 239 265 281 292 328 164 203 239 269 271 260 264 279 287 304 319 328 329 322 323 327
225 225 225 226 226 229 229 216 201 197 202 205 201 200 202 195 188 184 183 228 260 271 269 267 264 259 256 252 246 241 236 235 235 232 232 237 236 235 247 256 271 16 263 266 303 346 317 279 299 289 276 269 265 262 252 248 257 243 206 217 227 221 242 278 276 258 261 270 270 266 266 264 251 248 257 264 259 241 226 249 273 299 323 318 306 314 320
224 223 224 224 223 225 226 216 200 195 199 206 204 201 209 202 187 183 181 209 271 281 257 237 237 244 245 231 220 220 218 218 222 222 219 224 231 231 236 260 293 264 219 231 316 343 293 277 335 282 275 279 268 264 261 254 260 268 252 241 236 219 214 237 252 258 267 262 249 243 249 256 258 256 250 248 250 243 230 242 268 292 299 296 297 302 305
220 220 220 220 219 222 224 214 201 196 195 203 208 203 201 196 187 189 203 219 234 277 256 214 200 178 61 167 183 200 204 205 209 208 207 214 224 236 269 13 330 280 277 177 232 241 226 237 251 256 275 291 255 261 272 272 270 274 262 259 259 193 170 233 250 248 250 258 261 262 260 256 257 259 257 252 247 234 216 220 243 257 262 270 279 288 296
217 217 217 217 216 220 218 207 202 200 194 199 208 203 195 192 188 194 211 220 200 225 275 250 178 132 152 219 215 201 193 192 196 199 202 211 223 238 262 295 279 274 4 43 241 239 235 249 260 266 276 271 211 262 278 278 279 278 263 265 283 352 176 242 259 257 256 258 260 263 264 259 247 239 249 260 253 227 210 206 211 225 240 252 263 270 285
215 217 215 212 213 216 213 204 203 205 198 199 207 205 202 208 206 203 206 205 192 199 243 231 160 123 246 263 258 241 220 210 208 208 209 215 224 233 242 245 238 209 154 136 260 241 232 239 243 252 265 265 235 266 275 274 276 276 266 260 261 251 242 249 255 255 254 255 254 258 263 261 242 229 251 258 238 221 219 217 216 224 232 245 269 274 276
214 215 211 208 210 213 209 202 202 204 202 201 204 210 222 231 230 223 219 218 224 252 280 243 272 316 301 276 252 235 224 213 207 209 212 216 220 225 229 231 232 227 211 208 220 219 220 223 223 238 259 271 260 263 266 264 266 268 265 258 248 245 250 254 254 258 266 273 273 270 270 269 264 266 277 257 220 212 223 225 226 230 218 218 260 275 279
211 210 206 204 207 209 205 201 201 202 201 197 197 211 237 243 237 230 223 221 226 240 313 282 277 297 310 278 199 205 203 197 198 206 213 214 213 219 226 227 229 230 228 230 237 235 231 231 236 246 252 245 268 275 271 265 265 264 265 264 251 244 249 255 261 270 277 279 276 268 262 264 263 273 289 256 208 207 222 223 221 221 204 205 242 260 271
209 207 202 202 205 205 202 200 199 199 196 189 184 200 241 246 233 227 225 221 213 208 222 263 259 299 324 275 240 217 200 198 205 210 212 210 210 216 222 224 227 230 229 232 235 238 245 243 240 247 240 216 244 276 266 264 272 273 273 272 259 245 244 245 249 259 266 273 277 269 260 262 263 266 272 245 210 211 222 215 208 208 203 210 231 244 251
206 205 201 201 202 200 200 199 195 192 188 181 174 180 224 229 215 216 219 216 201 184 188 239 246 291 293 245 231 219 200 197 204 210 212 213 218 222 220 219 223 223 223 232 236 236 245 242 236 245 235 210 215 254 262 263 274 274 272 273 258 239 242 243 242 250 258 265 272 268 261 259 254 249 248 226 207 210 214 203 190 185 193 216 232 240 243
201 202 200 201 199 198 200 199 193 190 190 188 187 193 219 310 199 195 199 196 186 175 177 220 238 278 279 199 193 200 190 187 195 206 209 208 213 219 215 213 218 219 219 231 239 234 239 238 238 251 238 190 188 247 262 256 260 263 266 273 270 253 255 257 251 253 256 254 256 259 257 247 236 237 243 227 205 203 205 197 185 178 189 213 221 220 225
197 197 198 199 198 198 200 199 196 197 197 198 203 211 221 263 12 167 175 174 169 171 199 205 226 253 274 15 153 176 175 179 195 202 201 193 193 202 205 206 215 218 210 215 225 230 235 234 236 247 237 190 190 249 259 249 250 255 262 272 276 269 263 261 257 259 259 252 244 246 253 258 250 240 240 227 203 198 198 193 182 179 191 210 213 210 216
194 195 198 199 198 199 200 198 198 198 195 196 208 220 225 233 228 159 165 162 145 119 185 196 234 223 215 306 298 180 181 205 219 202 198 182 175 184 195 193 201 212 207 209 223 236 239 237 238 242 235 215 221 246 254 251 251 255 261 267 270 268 264 260 257 260 260 253 242 239 249 264 266 242 226 215 200 194 192 187 183 185 195 209 211 208 214
194 194 196 197 197 199 202 202 198 193 189 193 209 219 223 229 227 182 172 168 145 70 183 194 236 224 222 264 269 173 175 224 244 222 197 167 175 199 207 184 192 212 207 203 224 240 237 233 238 240 235 225 225 231 242 250 254 257 261 263 263 264 263 260 260 264 261 250 243 242 244 245 240 230 223 214 199 190 186 186 189 194 202 209 203 196 208
192 192 195 198 197 197 198 197 193 187 184 192 201 206 216 227 230 212 201 201 214 225 173 170 209 208 217 254 269 150 163 223 238 206 165 155 182 206 207 202 214 219 197 203 229 241 232 217 224 238 236 229 228 228 237 253 261 265 266 269 271 271 270 268 270 275 272 257 247 247 245 238 232 230 226 213 198 189 187 189 193 198 206 210 198 191 203
190 191 193 192 189 188 187 187 190 192 190 183 177 174 180 197 209 212 210 212 224 227 201 206 221 212 221 250 263 147 175 219 221 196 198 205 196 183 193 222 229 201 192 226 236 238 230 215 224 242 244 239 240 241 244 254 264 267 269 273 277 277 275 275 273 273 271 262 249 243 239 235 233 229 219 207 195 188 189 193 195 199 206 207 194 188 196
187 187 185 181 177 178 182 181 184 184 177 168 161 150 140 158 179 206 206 202 216 214 205 220 226 216 225 242 227 178 181 219 232 221 216 216 202 181 197 227 224 197 235 249 232 209 218 221 226 246 254 252 251 253 253 257 265 268 269 273 276 276 276 276 271 263 260 256 249 240 230 229 230 225 213 204 194 189 194 199 196 196 202 200 186 182 186
181 178 178 178 177 168 155 163 166 162 158 155 154 144 136 174 187 194 184 187 205 198 196 220 227 215 215 226 225 209 202 227 237 229 215 206 210 204 204 216 207 212 254 257 209 176 217 233 233 249 258 254 249 251 253 256 262 264 264 266 268 270 272 272 265 256 252 255 260 257 238 231 231 222 208 201 195 190 195 198 194 193 196 190 178 179 187
172 168 168 176 163 128 134 149 157 155 148 140 139 145 174 205 203 187 175 181 200 206 201 213 221 213 214 226 232 218 193 205 233 237 218 202 204 213 216 214 187 203 250 252 199 170 228 254 252 253 259 257 249 249 252 255 257 260 262 263 265 269 272 271 265 258 253 256 262 261 248 241 240 226 206 198 195 192 194 195 192 191 189 180 175 183 191
167 166 158 142 131 131 139 148 153 148 131 96 142 158 175 196 193 191 197 197 201 211 204 199 205 207 209 219 227 210 177 183 231 257 226 206 194 205 220 216 175 221 252 250 185 170 235 258 254 252 259 266 265 262 263 260 258 257 254 255 260 267 269 269 264 254 247 247 250 248 238 232 229 217 202 197 196 196 195 191 186 186 185 179 176 184 189
171 161 141 128 128 134 142 149 151 130 102 144 187 183 187 190 180 188 210 213 213 211 193 193 204 207 193 196 206 203 180 180 189 201 207 204 193 208 223 217 201 232 247 245 168 202 238 250 250 251 257 258 258 265 269 263 263 266 259 250 251 258 260 259 253 239 230 229 228 222 217 217 217 211 206 203 201 199 193 186 183 183 183 180 181 186 189
160 148 134 124 123 134 144 155 182 160 163 186 193 184 182 183 183 192 205 212 214 205 185 176 172 149 153 172 182 175 168 181 189 190 197 197 188 202 221 221 218 232 248 237 223 235 240 241 245 256 266 262 251 266 271 266 270 277 270 252 245 252 254 252 240 215 204 206 205 198 198 205 209 207 207 205 199 189 183 182 183 182 180 181 185 186 184
142 136 127 111 103 139 159 166 179 195 201 199 187 181 182 184 189 194 194 185 184 187 181 175 171 163 156 161 164 158 160 181 196 197 197 198 192 194 210 221 222 221 226 235 240 245 248 246 248 260 274 281 273 265 259 254 262 270 265 241 224 231 235 223 202 187 183 186 187 186 198 212 211 208 209 206 197 187 181 180 181 182 183 186 188 184 181
135 126 119 129 148 170 184 182 182 201 206 197 186 189 191 189 189 193 188 171 163 167 168 171 174 168 154 151 161 173 171 171 185 195 193 196 203 207 215 233 237 226 232 244 247 247 246 245 245 250 256 261 259 243 236 239 248 255 251 226 207 208 208 205 206 210 217 214 200 199 220 228 222 214 208 200 192 188 185 179 176 181 186 189 190 185 180
135 129 143 157 178 192 199 194 189 196 201 194 190 198 201 197 192 186 172 153 147 155 160 164 165 161 157 158 169 179 169 167 180 191 190 195 210 215 218 231 239 236 239 246 249 247 243 243 249 257 260 262 257 242 235 237 232 227 224 213 200 196 201 220 236 251 271 269 246 236 239 234 223 212 199 186 182 188 189 182 179 183 187 188 189 186 183
124 136 151 193 198 192 200 207 200 190 186 187 194 201 202 194 173 155 149 150 149 143 143 147 147 145 151 160 167 170 172 175 183 188 193 205 219 217 211 218 224 230 237 241 242 240 238 243 256 264 260 248 247 249 244 228 211 206 208 211 209 212 230 247 255 264 271 256 233 228 231 231 226 216 202 189 186 191 191 184 182 185 185 186 190 193 195
140 154 192 207 190 188 197 198 190 186 186 190 192 191 184 174 161 150 143 143 143 141 140 141 138 131 136 157 177 173 174 183 189 190 197 217 220 204 199 219 228 231 234 236 235 233 235 248 260 259 231 222 239 248 243 224 208 203 210 218 220 227 237 244 254 283 285 257 240 235 234 234 231 224 214 202 196 194 191 186 185 186 187 192 198 201 202
131 160 216 214 205 202 189 183 191 202 196 175 169 178 184 185 181 162 144 137 139 139 133 126 124 129 138 151 173 178 181 190 195 190 192 209 217 208 206 223 231 231 228 225 227 233 245 258 261 240 213 216 226 230 229 224 212 211 220 223 216 213 219 208 166 226 250 247 258 263 258 248 241 231 221 216 211 203 193 188 188 190 191 197 203 203 202
136 210 225 204 194 188 179 182 198 208 200 181 173 183 188 184 171 152 141 140 135 123 106 89 91 115 132 143 166 191 196 200 205 202 201 206 211 213 221 229 231 229 224 218 218 225 241 253 250 232 219 217 222 227 224 212 197 195 200 193 175 162 153 127 73 312 263 256 276 282 272 261 253 241 231 228 225 212 193 186 189 192 190 193 200 204 201
204 239 233 211 199 191 182 183 197 206 202 191 177 174 176 175 163 151 147 145 137 132 140 153 136 119 144 171 184 187 181 184 203 215 217 216 213 215 224 231 234 233 231 218 206 213 234 247 247 240 232 223 220 220 212 192 179 175 169 163 165 173 185 202 228 262 284 256 238 248 256 257 254 252 246 238 228 212 192 181 181 182 181 181 185 188 185
199 214 207 198 201 202 197 196 203 204 195 179 163 161 163 158 146 143 146 151 153 155 161 158 142 144 176 188 181 159 153 182 212 217 217 218 217 218 225 235 242 244 245 236 221 226 240 242 235 235 236 224 207 195 184 173 170 172 175 180 188 200 214 236 263 283 287 276 249 237 241 233 218 223 231 227 223 221 208 181 171 178 184 182 181 180 175